DAL247 BIKF-KJFK

Flight info

Callsign DAL247
Flight time N/A
Altitude 38000
Route DELES2A DELES DCT DOPOD DCT 61N030W 5630N04000W 54N050W DCT NEEKO/N0478F380 N616B TOPPS DCT ENE PARCH4
Aircraft A339/H-SADE1E2E3GHIJ3J5M1P2RWXY/LB2D1

Departure

Time N/A
Airport Keflavik International Airport (BIKF)

Arrival

Time 2026-05-04 06:20
Airport John F. Kennedy International Airport (KJFK)
Time Latitude Longitude Altitude Speed Heading
2026-05-04 05:39 42.95318 -70.84473 37861 ft 456 kts 204°
2026-05-04 05:40 42.88327 -70.87872 37860 ft 456 kts 204°
2026-05-04 05:40 42.83346 -70.90288 37863 ft 456 kts 204°
2026-05-04 05:41 42.76376 -70.93658 37870 ft 455 kts 204°
2026-05-04 05:41 42.70448 -70.96513 37876 ft 456 kts 204°
2026-05-04 05:42 42.65480 -70.98902 37880 ft 456 kts 204°
2026-05-04 05:42 42.59501 -71.01773 37887 ft 455 kts 204°
2026-05-04 05:43 42.53501 -71.04648 37894 ft 456 kts 204°
2026-05-04 05:45 42.29683 -71.16009 37909 ft 453 kts 204°
2026-05-04 05:47 42.05867 -71.27277 37918 ft 453 kts 205°
2026-05-04 05:47 41.98938 -71.30543 37927 ft 453 kts 205°
2026-05-04 05:48 41.94025 -71.32853 37931 ft 452 kts 205°
2026-05-04 05:48 41.88074 -71.35643 37944 ft 451 kts 205°
2026-05-04 05:49 41.81214 -71.38880 37943 ft 449 kts 206°
2026-05-04 05:49 41.76418 -71.41628 37941 ft 445 kts 211°
2026-05-04 05:51 41.59010 -71.57922 37943 ft 435 kts 225°
2026-05-04 05:51 41.55941 -71.61334 37784 ft 435 kts 225°
2026-05-04 05:52 41.54393 -71.63054 37659 ft 433 kts 225°
2026-05-04 05:52 41.52088 -71.65611 37463 ft 430 kts 224°
2026-05-04 05:52 41.49780 -71.68172 37271 ft 428 kts 224°
2026-05-04 05:52 41.46743 -71.71538 37007 ft 424 kts 224°
2026-05-04 05:53 41.45189 -71.73260 36878 ft 423 kts 224°
2026-05-04 05:54 41.29361 -71.90751 33944 ft 427 kts 225°
2026-05-04 05:55 41.27070 -71.93272 33428 ft 429 kts 225°
2026-05-04 05:55 41.24792 -71.95776 32915 ft 432 kts 225°
2026-05-04 05:55 41.22463 -71.98336 32313 ft 437 kts 225°
2026-05-04 05:55 41.19333 -72.01772 31447 ft 444 kts 225°
2026-05-04 05:56 41.17739 -72.03517 31010 ft 446 kts 225°
2026-05-04 05:56 41.15350 -72.06130 30172 ft 448 kts 225°
2026-05-04 05:56 41.12975 -72.08778 29289 ft 447 kts 228°
2026-05-04 05:56 41.10945 -72.11805 28445 ft 442 kts 238°
2026-05-04 05:57 41.09341 -72.15274 27675 ft 435 kts 247°
2026-05-04 05:57 41.08232 -72.18927 27118 ft 426 kts 255°
2026-05-04 05:57 41.07297 -72.22644 26702 ft 418 kts 255°
2026-05-04 05:57 41.06402 -72.26241 26266 ft 411 kts 255°
2026-05-04 05:58 41.05510 -72.29825 25825 ft 406 kts 255°
2026-05-04 05:58 41.04637 -72.33332 25384 ft 400 kts 255°
2026-05-04 05:58 41.03494 -72.37929 24787 ft 394 kts 255°
2026-05-04 05:58 41.02924 -72.40220 24486 ft 391 kts 255°
2026-05-04 05:59 41.01793 -72.44751 23888 ft 386 kts 256°
2026-05-04 05:59 41.01242 -72.46955 23609 ft 383 kts 256°
2026-05-04 05:59 41.00417 -72.50266 23159 ft 379 kts 255°
2026-05-04 05:59 40.99582 -72.53597 22736 ft 375 kts 256°
2026-05-04 06:00 40.98498 -72.57921 22180 ft 370 kts 255°
2026-05-04 06:00 40.97694 -72.61123 21497 ft 370 kts 255°
2026-05-04 06:00 40.97154 -72.63277 20737 ft 375 kts 255°
2026-05-04 06:00 40.96328 -72.66566 19664 ft 383 kts 254°
2026-05-04 06:01 40.95483 -72.69916 18853 ft 382 kts 254°
2026-05-04 06:01 40.94647 -72.73216 18056 ft 378 kts 254°
2026-05-04 06:03 40.83095 -72.89330 14331 ft 330 kts 221°
2026-05-04 06:03 40.81241 -72.91092 13790 ft 323 kts 221°
2026-05-04 06:05 40.69096 -73.02460 10735 ft 284 kts 221°
2026-05-04 06:05 40.65384 -73.05879 9863 ft 275 kts 221°
2026-05-04 06:05 40.63827 -73.07314 9440 ft 272 kts 221°
2026-05-04 06:06 40.62785 -73.08279 9156 ft 271 kts 221°
2026-05-04 06:06 40.61251 -73.09704 8750 ft 269 kts 221°
2026-05-04 06:06 40.59744 -73.11110 8344 ft 267 kts 221°
2026-05-04 06:06 40.58229 -73.12532 7933 ft 265 kts 221°
2026-05-04 06:07 40.56249 -73.14402 7394 ft 263 kts 221°
2026-05-04 06:07 40.55254 -73.15346 7121 ft 262 kts 221°
2026-05-04 06:07 40.53777 -73.16757 6714 ft 260 kts 221°
2026-05-04 06:07 40.52338 -73.18144 6312 ft 259 kts 221°
2026-05-04 06:08 40.50880 -73.19562 5901 ft 257 kts 221°
2026-05-04 06:08 40.49452 -73.20948 5496 ft 256 kts 221°
2026-05-04 06:08 40.47536 -73.22803 4997 ft 256 kts 221°
2026-05-04 06:08 40.46588 -73.23717 4809 ft 254 kts 221°
2026-05-04 06:09 40.45180 -73.25076 4619 ft 247 kts 222°
2026-05-04 06:09 40.44049 -73.26662 4368 ft 233 kts 251°
2026-05-04 06:11 40.47366 -73.39290 2981 ft 201 kts 293°
2026-05-04 06:11 40.47830 -73.40994 2799 ft 196 kts 283°
2026-05-04 06:13 40.50828 -73.50691 2600 ft 153 kts 298°
2026-05-04 06:14 40.54076 -73.57847 1980 ft 150 kts 297°
2026-05-04 06:14 40.54610 -73.59036 1976 ft 151 kts 297°
2026-05-04 06:15 40.55143 -73.60224 1974 ft 151 kts 297°
2026-05-04 06:15 40.55676 -73.61411 1975 ft 151 kts 297°
2026-05-04 06:15 40.56224 -73.62628 1976 ft 151 kts 297°
2026-05-04 06:15 40.56765 -73.63829 1976 ft 147 kts 297°
2026-05-04 06:16 40.57273 -73.64955 1965 ft 140 kts 297°
2026-05-04 06:16 40.57770 -73.66058 1974 ft 140 kts 296°
2026-05-04 06:16 40.58270 -73.67165 1941 ft 141 kts 296°
2026-05-04 06:16 40.58931 -73.68627 1678 ft 135 kts 296°
2026-05-04 06:17 40.59402 -73.69666 1493 ft 128 kts 296°
2026-05-04 06:17 40.59854 -73.70667 1332 ft 126 kts 296°
2026-05-04 06:17 40.60059 -73.71122 1264 ft 127 kts 296°
2026-05-04 06:17 40.60504 -73.72137 1105 ft 128 kts 295°
2026-05-04 06:18 40.60972 -73.73144 930 ft 130 kts 297°
2026-05-04 06:18 40.61447 -73.74168 735 ft 131 kts 296°
2026-05-04 06:18 40.61907 -73.75196 555 ft 132 kts 296°
2026-05-04 06:20 40.64381 -73.80450 24 ft 9 kts 24°
2026-05-04 06:20 40.64445 -73.80405 24 ft 11 kts 30°
2026-05-04 06:21 40.64421 -73.80154 24 ft 11 kts 121°
2026-05-04 06:21 40.64393 -73.80093 24 ft 12 kts 121°
2026-05-04 06:22 40.64348 -73.79993 24 ft 13 kts 120°
2026-05-04 06:22 40.64291 -73.79890 24 ft 14 kts 133°
2026-05-04 06:25 40.63559 -73.78269 22 ft 6 kts 38°
2026-05-04 06:25 40.63604 -73.78252 23 ft 7 kts
2026-05-04 06:26 40.63654 -73.78259 24 ft 7 kts 352°
2026-05-04 06:26 40.63701 -73.78266 24 ft 4 kts 358°
2026-05-04 06:26 40.63724 -73.78246 24 ft 3 kts 60°
2026-05-04 06:26 40.63732 -73.78200 24 ft 4 kts 82°